When you browse on this site, cookies collect data to enhance your experience and personalize the content and advertising you see.
Visit our Privacy Policy to learn more. By continuing to use the site, you agree to this use of cookies and data.

Hourly Weather Melbourne

Today, 7 July, Tuesday

Time Temperature Precipitation Wind Pressure Humidity
00:00 +10°C° 0 mm 2 mps 772 mmHg 84%
01:00 +10°C° 0 mm 2 mps 771 mmHg 86%
02:00 +10°C° 0 mm 2 mps 771 mmHg 87%
03:00 +10°C° 0 mm 2 mps 771 mmHg 87%
04:00 +10°C° 0 mm 2 mps 772 mmHg 87%
05:00 +9°C° 0 mm 2 mps 771 mmHg 88%
06:00 +9°C° 0 mm 2 mps 771 mmHg 89%
07:00 +9°C° 0 mm 1 mps 771 mmHg 90%
08:00 +10°C° 0 mm 1 mps 772 mmHg 86%
09:00 +11°C° 0 mm 1 mps 772 mmHg 82%
10:00 +12°C° 0 mm 1 mps 773 mmHg 77%
11:00 +13°C° 0 mm 2 mps 772 mmHg 74%
12:00 +14°C° 0 mm 2 mps 771 mmHg 71%
13:00 +15°C° 0 mm 2 mps 771 mmHg 67%
14:00 +14°C° 0 mm 2 mps 771 mmHg 70%
15:00 +14°C° 0 mm 2 mps 771 mmHg 73%
16:00 +14°C° 0 mm 2 mps 771 mmHg 75%
17:00 +13°C° 0 mm 2 mps 771 mmHg 78%
18:00 +12°C° 0 mm 2 mps 771 mmHg 81%
19:00 +10°C° 0 mm 2 mps 771 mmHg 85%
20:00 +9°C° 0 mm 2 mps 771 mmHg 85%
21:00 +9°C° 0 mm 2 mps 771 mmHg 86%
22:00 +9°C° 0 mm 1 mps 771 mmHg 85%
23:00 +9°C° 0 mm 1 mps 771 mmHg 86%

Tomorrow, 8 July, Wednesday

Time Temperature Precipitation Wind Pressure Humidity
00:00 +8°C° 0 mm 1 mps 771 mmHg 87%
01:00 +7°C° 0 mm 0 mps 770 mmHg 88%
02:00 +8°C° 0 mm 1 mps 770 mmHg 89%
03:00 +8°C° 0 mm 1 mps 770 mmHg 89%
04:00 +8°C° 0 mm 1 mps 770 mmHg 90%
05:00 +8°C° 0 mm 1 mps 770 mmHg 90%
06:00 +8°C° 0 mm 1 mps 771 mmHg 90%
07:00 +8°C° 0 mm 1 mps 771 mmHg 90%
08:00 +9°C° 0 mm 1 mps 771 mmHg 85%
09:00 +10°C° 0 mm 1 mps 771 mmHg 80%
10:00 +11°C° 0 mm 1 mps 771 mmHg 75%
11:00 +13°C° 0 mm 2 mps 770 mmHg 69%
12:00 +14°C° 0 mm 2 mps 770 mmHg 63%
13:00 +16°C° 0 mm 2 mps 769 mmHg 57%
14:00 +16°C° 0 mm 2 mps 769 mmHg 59%
15:00 +16°C° 0 mm 2 mps 769 mmHg 61%
16:00 +16°C° 0 mm 2 mps 768 mmHg 63%
17:00 +14°C° 0 mm 2 mps 769 mmHg 70%
18:00 +13°C° 0 mm 2 mps 769 mmHg 76%
19:00 +10°C° 0 mm 2 mps 769 mmHg 83%
20:00 +10°C° 0 mm 2 mps 769 mmHg 85%
21:00 +9°C° 0 mm 2 mps 769 mmHg 86%
22:00 +9°C° 0 mm 2 mps 769 mmHg 87%
23:00 +9°C° 0 mm 2 mps 769 mmHg 88%

Day after tomorrow, 9 July, Thursday

Time Temperature Precipitation Wind Pressure Humidity
00:00 +8°C° 0 mm 2 mps 769 mmHg 88%
01:00 +8°C° 0 mm 2 mps 769 mmHg 88%
02:00 +8°C° 0 mm 2 mps 769 mmHg 88%
03:00 +8°C° 0 mm 2 mps 768 mmHg 88%
04:00 +8°C° 0 mm 2 mps 768 mmHg 88%
05:00 +7°C° 0 mm 2 mps 769 mmHg 89%
06:00 +7°C° 0 mm 2 mps 769 mmHg 89%
07:00 +7°C° 0 mm 3 mps 769 mmHg 89%
08:00 +9°C° 0 mm 3 mps 769 mmHg 85%
09:00 +10°C° 0 mm 3 mps 769 mmHg 80%
10:00 +11°C° 0 mm 4 mps 769 mmHg 75%
11:00 +12°C° 0 mm 4 mps 769 mmHg 71%
12:00 +14°C° 0 mm 4 mps 768 mmHg 66%
13:00 +15°C° 0 mm 4 mps 768 mmHg 62%
14:00 +15°C° 0 mm 4 mps 767 mmHg 62%
15:00 +16°C° 0 mm 3 mps 767 mmHg 63%
16:00 +14°C° 0 mm 3 mps 767 mmHg 63%
17:00 +13°C° 0 mm 3 mps 767 mmHg 69%
18:00 +12°C° 0 mm 3 mps 767 mmHg 74%
19:00 +11°C° 0 mm 3 mps 768 mmHg 80%
20:00 +10°C° 0 mm 3 mps 768 mmHg 81%
21:00 +10°C° 0 mm 3 mps 768 mmHg 82%
22:00 +10°C° 0 mm 3 mps 768 mmHg 83%
23:00 +10°C° 0 mm 3 mps 767 mmHg 83%

10 July, Friday

Time Temperature Precipitation Wind Pressure Humidity
00:00 +9°C° 0 mm 3 mps 767 mmHg 83%
01:00 +9°C° 0 mm 3 mps 767 mmHg 84%
02:00 +9°C° 0 mm 3 mps 767 mmHg 83%
03:00 +9°C° 0 mm 2 mps 766 mmHg 83%
04:00 +9°C° 0 mm 2 mps 766 mmHg 83%
05:00 +9°C° 0 mm 2 mps 766 mmHg 84%
06:00 +9°C° 0 mm 3 mps 766 mmHg 85%
07:00 +9°C° 0 mm 3 mps 766 mmHg 86%
08:00 +10°C° 0 mm 3 mps 766 mmHg 82%
09:00 +11°C° 0 mm 3 mps 766 mmHg 79%
10:00 +12°C° 0 mm 4 mps 765 mmHg 75%
11:00 +13°C° 0 mm 4 mps 765 mmHg 73%
12:00 +13°C° 0 mm 4 mps 764 mmHg 72%
13:00 +14°C° 0 mm 4 mps 764 mmHg 70%
14:00 +14°C° 0 mm 4 mps 764 mmHg 71%
15:00 +14°C° 0 mm 4 mps 763 mmHg 72%
16:00 +14°C° 0 mm 3 mps 763 mmHg 73%
17:00 +13°C° 0 mm 3 mps 763 mmHg 78%
18:00 +12°C° 0 mm 3 mps 763 mmHg 83%
19:00 +11°C° 0 mm 3 mps 763 mmHg 87%
20:00 +11°C° 0 mm 3 mps 764 mmHg 88%
21:00 +12°C° 0 mm 2 mps 764 mmHg 89%
22:00 +10°C° 0 mm 2 mps 764 mmHg 90%
23:00 +10°C° 0 mm 2 mps 764 mmHg 90%

11 July, Saturday

Time Temperature Precipitation Wind Pressure Humidity
00:00 +10°C° 0 mm 2 mps 763 mmHg 90%
01:00 +10°C° 0 mm 2 mps 763 mmHg 89%
02:00 +10°C° 0 mm 2 mps 763 mmHg 90%
03:00 +11°C° 0 mm 1 mps 763 mmHg 90%
04:00 +11°C° 0 mm 1 mps 763 mmHg 90%
05:00 +11°C° 0 mm 1 mps 763 mmHg 90%
06:00 +11°C° 0 mm 1 mps 763 mmHg 90%
07:00 +10°C° 0 mm 1 mps 763 mmHg 91%
08:00 +11°C° 0 mm 1 mps 763 mmHg 87%
09:00 +12°C° 0 mm 1 mps 763 mmHg 83%
10:00 +13°C° 0 mm 1 mps 763 mmHg 78%
11:00 +14°C° 0 mm 1 mps 763 mmHg 74%
12:00 +15°C° 0 mm 1 mps 763 mmHg 69%
13:00 +16°C° 0 mm 1 mps 762 mmHg 64%
14:00 +15°C° 0 mm 1 mps 762 mmHg 66%
15:00 +15°C° 0 mm 1 mps 762 mmHg 68%
16:00 +15°C° 0 mm 1 mps 762 mmHg 70%
17:00 +14°C° 0 mm 1 mps 762 mmHg 74%
18:00 +13°C° 0 mm 1 mps 762 mmHg 79%
19:00 +12°C° 0 mm 1 mps 763 mmHg 83%
20:00 +11°C° 0 mm 1 mps 763 mmHg 85%
21:00 +11°C° 0 mm 1 mps 763 mmHg 88%
22:00 +11°C° 0 mm 1 mps 763 mmHg 90%
23:00 +10°C° 0 mm 1 mps 763 mmHg 91%

12 July, Sunday

Time Temperature Precipitation Wind Pressure Humidity
00:00 +10°C° 0 mm 1 mps 763 mmHg 92%
01:00 +10°C° 0 mm 1 mps 764 mmHg 94%
02:00 +9°C° 0 mm 1 mps 763 mmHg 94%
03:00 +9°C° 0 mm 1 mps 763 mmHg 94%
04:00 +9°C° 0 mm 1 mps 763 mmHg 95%
05:00 +9°C° 0 mm 1 mps 763 mmHg 94%
06:00 +9°C° 0 mm 1 mps 764 mmHg 94%
07:00 +9°C° 0 mm 1 mps 764 mmHg 94%
08:00 +8°C° 0 mm 2 mps 764 mmHg 91%
09:00 +9°C° 0 mm 2 mps 765 mmHg 87%
10:00 +10°C° 0 mm 2 mps 765 mmHg 84%
11:00 +12°C° 0 mm 2 mps 764 mmHg 80%
12:00 +12°C° 0 mm 3 mps 764 mmHg 76%
13:00 +13°C° 0 mm 3 mps 764 mmHg 72%
14:00 +13°C° 0 mm 3 mps 764 mmHg 71%
15:00 +14°C° 0 mm 2 mps 764 mmHg 71%
16:00 +14°C° 0 mm 2 mps 764 mmHg 70%
17:00 +12°C° 0 mm 3 mps 764 mmHg 74%
18:00 +11°C° 0 mm 3 mps 765 mmHg 79%
19:00 +11°C° 0 mm 3 mps 765 mmHg 84%
20:00 +10°C° 0 mm 3 mps 765 mmHg 86%
21:00 +10°C° 0 mm 3 mps 766 mmHg 88%
22:00 +9°C° 0 mm 3 mps 766 mmHg 89%
23:00 +9°C° 0 mm 3 mps 766 mmHg 90%
Show more